SWR895 LSGG-ENBR

Flight info

Callsign SWR895
Flight time N/A
Altitude 38000
Route DIPIR1A ARBOS DCT PENDU DCT EPL DCT ROUSY DCT ARCKY DCT IBESA DCT GREFI DCT ALUVA ALUVA2N
Aircraft A20N/M-SDE2E3FGHIRWXY/LB1

Departure

Time 2026-05-06 15:32
Airport Geneva International Airport (LSGG)

Arrival

Time N/A
Airport Bergen Airport, Flesland (ENBR)
Time Latitude Longitude Altitude Speed Heading
2026-05-06 15:21 46.23130 6.10702 1404 ft 0 kts 135°
2026-05-06 15:25 46.23136 6.10693 1392 ft 2 kts 135°
2026-05-06 15:25 46.23147 6.10678 1429 ft 2 kts 135°
2026-05-06 15:25 46.23157 6.10663 1392 ft 2 kts 119°
2026-05-06 15:26 46.23161 6.10643 1401 ft 2 kts 70°
2026-05-06 15:26 46.23159 6.10634 1399 ft 0 kts 49°
2026-05-06 15:27 46.23165 6.10644 1402 ft 3 kts 46°
2026-05-06 15:27 46.23192 6.10646 1400 ft 6 kts 336°
2026-05-06 15:28 46.23233 6.10591 1392 ft 10 kts 315°
2026-05-06 15:28 46.23295 6.10530 1400 ft 12 kts 356°
2026-05-06 15:28 46.23371 6.10600 1396 ft 15 kts 44°
2026-05-06 15:28 46.23453 6.10712 1388 ft 18 kts 44°
2026-05-06 15:29 46.23545 6.10846 1390 ft 20 kts 45°
2026-05-06 15:29 46.23647 6.10996 1385 ft 22 kts 45°
2026-05-06 15:29 46.23763 6.11168 1378 ft 28 kts 45°
2026-05-06 15:29 46.23907 6.11378 1375 ft 31 kts 46°
2026-05-06 15:30 46.24066 6.11610 1369 ft 34 kts 45°
2026-05-06 15:30 46.24216 6.11830 1362 ft 19 kts 45°
2026-05-06 15:30 46.24290 6.11935 1362 ft 8 kts 33°
2026-05-06 15:30 46.24335 6.11914 1364 ft 6 kts 304°
2026-05-06 15:31 46.24337 6.11858 1366 ft 5 kts 259°
2026-05-06 15:31 46.24328 6.11795 1368 ft 10 kts 258°
2026-05-06 15:31 46.24308 6.11694 1371 ft 11 kts 255°
2026-05-06 15:32 46.24159 6.11414 1373 ft 57 kts 226°
2026-05-06 15:32 46.23720 6.10770 1382 ft 121 kts 225°
2026-05-06 15:32 46.23036 6.09781 1652 ft 147 kts 224°
2026-05-06 15:32 46.22292 6.08694 2241 ft 156 kts 225°
2026-05-06 15:33 46.21525 6.07587 2980 ft 159 kts 224°
2026-05-06 15:33 46.20699 6.06434 3548 ft 171 kts 224°
2026-05-06 15:33 46.19781 6.05182 4046 ft 191 kts 223°
2026-05-06 15:33 46.18759 6.03802 4532 ft 212 kts 223°
2026-05-06 15:34 46.17659 6.02256 5107 ft 229 kts 225°
2026-05-06 15:34 46.16503 6.00554 5763 ft 244 kts 226°
2026-05-06 15:34 46.15318 5.98702 6487 ft 257 kts 228°
2026-05-06 15:34 46.14151 5.96665 7225 ft 267 kts 239°
2026-05-06 15:35 46.13532 5.94163 8093 ft 270 kts 263°
2026-05-06 15:35 46.13721 5.91482 9040 ft 274 kts 288°
2026-05-06 15:35 46.14741 5.89150 9908 ft 281 kts 314°
2026-05-06 15:35 46.16430 5.87612 10481 ft 301 kts 338°
2026-05-06 15:36 46.18573 5.87007 10755 ft 328 kts 353°
2026-05-06 15:36 46.20912 5.86731 11211 ft 342 kts 352°
2026-05-06 15:36 46.23292 5.86316 12013 ft 346 kts 349°
2026-05-06 15:36 46.25674 5.85701 12834 ft 349 kts 346°
2026-05-06 15:37 46.28063 5.84942 13623 ft 353 kts 345°
2026-05-06 15:37 46.30469 5.84101 14323 ft 357 kts 344°
2026-05-06 15:37 46.32892 5.83224 15024 ft 361 kts 344°
2026-05-06 15:37 46.35307 5.82343 15691 ft 365 kts 344°
2026-05-06 15:38 46.37786 5.81439 16366 ft 369 kts 344°
2026-05-06 15:38 46.40275 5.80438 17044 ft 372 kts 339°
2026-05-06 15:38 46.42670 5.78961 17689 ft 375 kts 330°
2026-05-06 15:38 46.44940 5.77115 18516 ft 372 kts 329°
2026-05-06 15:39 46.47224 5.75265 19080 ft 377 kts 329°
2026-05-06 15:39 46.49506 5.73430 19610 ft 381 kts 329°
2026-05-06 15:39 46.51829 5.71565 20223 ft 383 kts 329°
2026-05-06 15:39 46.54173 5.69677 20762 ft 387 kts 329°
2026-05-06 15:40 46.56544 5.67762 21325 ft 391 kts 329°
2026-05-06 15:40 46.58929 5.65826 21839 ft 395 kts 329°
2026-05-06 15:40 46.61353 5.63916 22447 ft 397 kts 335°
2026-05-06 15:40 46.64016 5.62762 22957 ft 403 kts 351°
2026-05-06 15:41 46.66795 5.62713 23478 ft 409 kts
2026-05-06 15:41 46.69554 5.63777 23930 ft 413 kts 22°
2026-05-06 15:41 46.72046 5.65882 24341 ft 418 kts 38°
2026-05-06 15:41 46.74228 5.68724 24715 ft 423 kts 44°
2026-05-06 15:42 46.76314 5.71764 25195 ft 425 kts 45°
2026-05-06 15:42 46.78417 5.74838 25511 ft 430 kts 45°
2026-05-06 15:42 46.80560 5.77902 25985 ft 432 kts 44°
2026-05-06 15:42 46.82743 5.80961 26309 ft 436 kts 44°
2026-05-06 15:43 46.84945 5.84014 26736 ft 439 kts 43°
2026-05-06 15:43 46.87184 5.87102 27033 ft 443 kts 43°
2026-05-06 15:43 46.89403 5.90161 27504 ft 444 kts 44°
2026-05-06 15:43 46.91667 5.93286 27783 ft 449 kts 44°
2026-05-06 15:44 46.93941 5.96429 28192 ft 451 kts 44°
2026-05-06 15:44 46.96298 5.99502 28478 ft 454 kts 36°
2026-05-06 15:44 46.99020 6.01859 28824 ft 456 kts 23°
2026-05-06 15:44 47.02039 6.03312 29100 ft 458 kts 10°
2026-05-06 15:45 47.05201 6.03763 29550 ft 457 kts 359°
2026-05-06 15:45 47.08390 6.03562 29768 ft 461 kts 355°
2026-05-06 15:45 47.10515 6.03357 30005 ft 462 kts 356°
2026-05-06 15:45 47.14775 6.03079 30360 ft 465 kts 358°
2026-05-06 15:46 47.18030 6.03010 30586 ft 468 kts 359°
2026-05-06 15:46 47.20229 6.03010 30806 ft 469 kts 359°
2026-05-06 15:46 47.24570 6.03063 31211 ft 470 kts
2026-05-06 15:46 47.26784 6.03100 31470 ft 470 kts
2026-05-06 15:47 47.30050 6.03162 31847 ft 470 kts
2026-05-06 15:47 47.33298 6.03223 32102 ft 472 kts
2026-05-06 15:47 47.36580 6.03287 32424 ft 472 kts
2026-05-06 15:47 47.39870 6.03373 32728 ft 472 kts
2026-05-06 15:48 47.43163 6.03468 33000 ft 474 kts
2026-05-06 15:48 47.46457 6.03564 33282 ft 474 kts
2026-05-06 15:48 47.49759 6.03659 33546 ft 475 kts
2026-05-06 15:48 47.53067 6.03752 33808 ft 476 kts 360°
2026-05-06 15:49 47.56384 6.03845 34036 ft 477 kts 360°
2026-05-06 15:49 47.59705 6.03937 34281 ft 477 kts 360°
2026-05-06 15:49 47.63019 6.04029 34520 ft 476 kts 360°
2026-05-06 15:49 47.66299 6.04120 34773 ft 476 kts 360°
2026-05-06 15:50 47.69598 6.04210 35030 ft 475 kts 360°
2026-05-06 15:50 47.72910 6.04302 35248 ft 475 kts 360°
2026-05-06 15:50 47.76223 6.04393 35459 ft 475 kts 360°
2026-05-06 15:50 47.79533 6.04485 35667 ft 475 kts 360°
2026-05-06 15:51 47.82838 6.04576 35872 ft 475 kts 359°
2026-05-06 15:51 47.86103 6.04667 36068 ft 475 kts 359°
2026-05-06 15:51 47.89407 6.04758 36273 ft 475 kts 359°
2026-05-06 15:51 47.92711 6.04850 36457 ft 475 kts 359°
2026-05-06 15:52 47.96016 6.04942 36632 ft 475 kts 359°
2026-05-06 15:52 47.99334 6.05034 36808 ft 475 kts 359°
2026-05-06 15:52 48.02641 6.05126 36982 ft 475 kts 359°
2026-05-06 15:52 48.05947 6.05219 37154 ft 475 kts 359°
2026-05-06 15:53 48.09253 6.05311 37327 ft 475 kts 359°
2026-05-06 15:53 48.12553 6.05403 37498 ft 474 kts 359°
2026-05-06 15:53 48.15861 6.05496 37640 ft 475 kts 359°
2026-05-06 15:53 48.19163 6.05588 37779 ft 475 kts 359°
2026-05-06 15:54 48.25731 6.05773 37856 ft 474 kts 359°
2026-05-06 15:54 48.32339 6.05959 37857 ft 474 kts 359°
2026-05-06 15:55 48.38947 6.06250 37857 ft 474 kts
2026-05-06 15:55 48.45535 6.06582 37857 ft 474 kts